EHI
1 1 0 0 0 0 0 0 0 0 0 0 0 0 0 0 0 0 0 0 0 1 2 3 3 1 0 0 0 0 0 0 0 1 1 1 0 1 0 0 0 0 1 2 2 3 4 3 2
1 0 0 0 0 0 0 0 0 0 0 0 0 0 0 0 0 0 0 0 0 0 1 3 3 2 0 0 0 0 0 0 0 0 0 0 0 1 0 0 0 0 0 1 1 2 4 3 1
0 0 0 0 0 0 0 0 0 0 0 0 0 0 0 0 0 0 0 0 0 0 1 2 2 1 0 0 0 0 0 0 0 0 0 0 0 0 0 0 0 0 0 0 0 1 2 1 1
0 0 0 0 0 0 0 0 0 0 0 0 0 0 0 0 0 0 0 0 0 0 1 1 1 0 0 0 0 0 0 0 0 0 0 0 0 0 0 0 0 0 0 0 0 1 0 0 0
0 0 0 0 0 0 0 0 0 0 0 0 0 0 0 0 0 0 0 0 0 0 0 0 0 0 0 0 0 0 0 0 0 0 0 0 0 0 0 0 0 0 0 0 0 0 0 0 0
0 0 0 0 0 0 0 0 0 0 0 0 0 0 0 0 0 1 1 1 0 0 0 0 0 0 0 0 0 0 0 0 1 1 1 0 0 0 0 0 0 0 0 0 0 0 0 1 1
0 0 0 0 0 0 0 0 0 0 0 0 0 0 0 0 1 2 2 2 1 0 0 0 0 0 0 0 0 0 0 0 1 2 1 0 0 0 0 0 0 0 0 0 0 0 1 2 2
0 0 0 0 0 0 0 0 0 0 0 0 0 0 0 0 2 3 3 3 2 1 0 0 0 0 0 0 0 0 0 0 1 1 1 0 0 0 0 0 0 0 0 0 0 0 2 3 3
0 0 0 0 0 0 0 0 0 0 0 0 0 0 0 1 4 5 4 3 2 1 0 0 0 0 0 0 0 0 0 0 0 0 0 0 0 0 0 0 0 0 0 0 0 0 1 2 1
0 0 0 0 0 0 0 0 0 0 0 0 0 0 0 1 4 5 4 2 1 0 0 0 0 0 0 0 0 0 0 0 0 0 0 0 0 0 0 0 0 0 0 0 0 0 0 0 0
0 0 0 0 0 0 0 0 0 0 0 0 0 0 0 0 2 3 2 1 0 0 0 0 0 0 0 0 0 0 0 0 0 0 0 0 0 0 0 0 0 0 0 0 0 0 0 0 0
0 0 0 0 0 0 0 0 0 0 0 0 0 0 0 0 0 1 1 0 0 0 0 0 0 0 0 0 0 0 0 0 0 0 0 0 0 0 0 0 0 0 0 0 0 0 0 0 0
0 0 0 0 0 0 0 0 0 0 0 0 0 0 0 0 0 0 0 0 0 0 0 0 0 0 0 0 0 0 0 0 0 0 0 0 0 0 0 0 0 0 0 0 0 0 0 0 0
0 0 0 0 0 0 0 0 0 0 0 0 0 0 0 0 0 0 0 0 0 0 0 0 0 0 0 0 0 0 0 0 0 0 0 0 0 0 0 0 0 0 0 0 0 0 0 0 0
0 0 0 0 0 0 0 0 0 0 0 0 0 0 0 0 0 0 0 0 0 0 0 0 0 0 0 0 0 0 0 0 0 0 0 0 0 0 0 0 0 0 0 0 0 0 0 0 0
0 0 0 0 0 0 0 0 0 0 0 0 0 0 0 0 0 0 0 0 0 0 0 0 0 0 0 0 0 0 0 0 0 0 0 0 0 0 0 0 0 0 0 0 0 0 0 0 0
0 0 0 0 0 0 0 0 0 0 0 0 0 0 0 0 0 0 0 0 0 0 0 0 0 0 0 0 0 0 0 0 0 0 0 0 0 0 0 0 0 0 0 0 0 0 0 0 0
0 0 0 0 0 0 0 0 0 0 0 0 0 0 0 0 0 0 0 0 0 0 0 0 0 0 0 0 0 0 0 0 0 0 0 0 0 0 0 0 0 0 0 0 0 0 0 0 0
0 0 0 0 0 0 0 0 0 0 0 0 0 0 0 0 0 0 0 0 0 0 0 0 0 0 0 0 0 0 0 0 0 0 0 0 0 0 0 0 0 0 1 1 1 1 0 0 0
0 0 0 0 0 0 0 0 0 0 0 0 0 0 0 0 0 0 0 0 0 0 0 0 0 0 0 0 0 0 0 0 0 0 0 0 0 0 0 0 0 1 3 3 2 1 0 0 0
0 0 0 0 0 0 0 0 0 0 0 0 0 0 0 0 0 0 0 0 0 0 0 0 0 0 0 0 0 0 0 0 0 0 0 0 0 0 0 0 0 1 3 3 3 2 1 0 0
0 0 0 0 0 0 0 0 0 0 0 0 0 0 0 0 0 0 0 0 0 0 0 0 0 0 0 0 0 0 0 0 0 1 1 1 0 1 1 1 1 1 3 3 3 3 2 1 0
0 0 0 0 0 0 0 0 0 0 0 0 0 0 0 0 0 0 0 0 0 0 0 0 0 0 0 0 0 0 0 0 0 1 2 1 0 1 2 2 2 3 3 3 3 3 3 1 0
0 0 0 0 0 0 0 0 0 0 0 0 0 0 0 0 0 0 0 0 0 0 0 0 0 0 0 0 0 0 0 0 0 1 1 0 1 2 3 3 3 3 3 3 3 3 3 2 1
0 0 0 0 0 0 0 0 0 0 0 0 0 0 0 0 0 0 0 0 0 0 0 0 0 0 0 0 0 0 0 0 0 0 0 0 1 2 2 2 3 3 2 2 3 3 3 2 1
0 0 0 0 0 0 0 0 0 0 0 0 0 0 0 0 0 0 0 0 0 0 0 0 0 0 0 0 0 0 0 0 0 0 0 0 1 1 1 2 3 3 3 3 3 3 3 2 1
0 0 0 0 0 0 0 0 0 0 0 0 0 0 0 0 0 0 0 0 0 0 0 0 0 0 0 0 0 0 0 0 0 0 0 0 0 1 2 3 3 3 3 3 3 2 2 1 0
0 0 0 0 0 0 0 0 0 0 0 0 0 0 0 0 0 0 0 0 0 0 0 0 1 1 0 0 0 0 0 0 0 0 0 0 0 1 2 3 3 3 3 2 1 1 1 0 0
0 0 0 0 0 0 0 0 0 0 0 0 0 0 0 0 0 0 0 0 0 0 0 1 2 2 1 0 0 0 0 0 0 0 0 0 0 1 2 2 2 2 2 1 0 0 0 0 0
0 0 0 0 0 0 0 0 0 0 0 0 0 0 0 0 0 0 0 0 0 0 0 1 2 3 2 1 0 0 0 0 0 0 0 0 0 0 1 1 1 1 1 0 0 0 0 0 0
Wind_Speed
4 3 2 3 2 3 6 6 4 5 5 5 5 4 5 6 6 7 5 4 4 4 5 6 7 7 8 8 9 10 10 10 10 10 10 10 9 9 9 9 9 9 9 9 9 8 7 8 8
2 1 3 2 1 4 6 5 6 5 6 5 5 4 5 7 6 6 5 4 4 5 5 7 7 8 8 8 9 9 10 10 10 10 10 10 10 9 9 9 9 8 9 9 9 9 8 8 8
2 2 2 0 2 4 7 6 7 7 5 3 4 4 5 5 5 4 5 4 5 5 6 8 7 8 8 8 10 10 10 10 10 10 10 10 9 9 9 9 8 8 8 8 9 10 10 9 9
2 2 1 2 6 5 5 6 6 7 4 3 4 6 6 5 3 5 6 5 6 6 6 8 7 8 9 9 9 9 9 9 9 9 9 9 9 9 9 8 8 8 8 8 9 9 9 9 8
2 2 3 4 6 5 4 5 4 4 4 4 4 6 7 5 5 7 6 6 6 6 6 8 8 8 9 9 9 9 9 9 9 9 9 9 9 8 8 8 8 8 8 8 8 8 8 8 8
2 2 3 4 6 5 5 4 4 4 5 5 5 6 6 6 6 6 6 6 6 6 6 7 8 8 8 9 9 9 9 9 9 9 9 9 9 9 8 8 8 8 8 8 8 7 8 8 8
1 1 2 5 6 5 5 3 3 4 4 4 3 5 7 7 6 6 7 6 6 5 5 5 6 7 8 9 9 9 9 10 9 9 9 9 9 9 8 8 8 8 8 8 8 8 8 8 8
1 2 4 4 5 5 6 4 3 2 4 4 2 4 6 8 7 7 7 6 6 5 5 5 5 5 6 7 9 9 9 9 9 9 9 7 7 7 7 8 9 8 8 8 9 9 9 9 8
3 3 3 4 4 5 7 6 4 2 5 4 2 3 7 11 9 8 7 6 6 5 4 4 4 5 5 6 7 6 7 7 5 7 6 3 4 5 5 9 9 9 8 9 9 8 8 7 8
3 3 2 2 3 5 7 5 6 6 6 5 6 6 9 10 9 8 7 6 6 5 4 4 4 4 4 4 4 4 4 4 4 5 5 4 4 5 5 7 8 8 8 8 8 6 4 2 4
1 1 3 3 3 5 7 6 5 6 4 5 7 10 11 10 9 8 7 6 5 5 4 4 4 4 4 3 3 3 3 3 4 4 5 3 3 3 3 3 4 4 4 4 5 3 3 3 3
2 2 2 3 4 5 6 6 5 4 2 3 6 10 11 10 9 7 7 6 6 5 4 4 4 3 3 3 3 2 2 2 3 3 4 3 3 3 3 2 3 2 2 3 3 2 4 4 4
3 3 2 3 5 5 5 5 5 4 3 4 7 10 11 10 8 7 6 6 5 5 5 4 4 3 3 3 2 2 2 2 3 3 3 4 3 3 3 3 3 3 2 2 2 3 4 4 4
3 4 3 3 5 5 6 5 5 5 6 7 9 10 10 9 8 7 7 6 6 5 5 5 4 4 3 3 2 2 2 2 2 2 3 4 3 3 3 3 3 3 2 3 2 3 3 3 3
4 4 4 4 4 4 6 7 7 5 8 8 9 9 9 8 8 7 6 6 5 5 5 5 4 3 3 3 3 2 2 2 2 2 2 3 3 3 3 3 3 3 2 3 2 3 2 2 3
5 5 5 5 4 4 7 6 5 7 9 9 9 9 9 9 9 7 6 6 5 5 6 6 4 4 3 3 2 2 2 2 2 2 2 3 3 3 3 2 2 2 2 2 2 2 2 2 2
6 5 4 5 5 5 8 6 4 8 10 10 10 9 9 10 9 8 7 6 5 5 5 6 5 4 4 4 3 2 2 2 2 2 2 2 3 3 3 2 2 2 1 1 1 2 2 2 3
5 5 5 5 5 7 9 8 5 8 10 10 10 9 10 10 9 8 7 7 6 5 6 6 6 5 5 3 3 2 2 2 1 2 2 2 2 2 2 1 2 2 1 2 2 2 2 2 2
4 5 6 4 2 7 9 9 7 8 10 11 11 11 11 10 9 8 8 7 7 7 6 6 6 5 4 3 3 2 2 2 1 1 2 2 1 2 2 1 1 1 1 2 2 2 2 2 1
7 7 6 4 3 6 8 10 8 9 12 11 11 11 11 11 10 9 9 9 8 8 7 7 6 6 5 3 2 2 2 1 1 1 1 1 1 1 1 1 1 1 1 1 2 1 0 1 1
8 8 6 5 3 6 7 9 8 8 9 10 11 11 11 11 11 11 10 9 9 8 8 6 7 6 6 5 3 3 2 2 2 2 1 1 1 1 0 1 1 0 0 1 1 0 0 0 0
7 5 6 6 7 4 5 6 4 5 8 9 11 11 11 12 11 10 10 10 9 8 7 7 7 6 6 6 4 4 3 2 2 1 1 1 1 1 1 0 0 0 0 1 1 0 1 1 1
4 2 4 6 7 8 6 8 3 3 6 8 10 11 11 12 12 11 11 10 9 8 7 7 7 6 6 6 5 5 3 2 2 2 2 1 1 1 1 1 0 0 1 1 1 0 1 0 1
4 4 4 5 6 8 5 7 4 2 4 4 6 9 10 11 11 10 9 9 8 8 7 7 7 7 6 6 6 5 4 4 3 3 2 1 1 1 1 0 0 1 1 1 1 0 0 1 1
7 6 5 6 6 4 2 6 4 2 2 4 4 5 7 9 10 10 10 10 9 9 8 8 8 8 7 7 6 5 5 5 4 3 3 2 1 1 1 1 1 1 0 1 1 1 0 1 1
7 8 6 5 4 3 4 6 2 1 2 3 4 4 5 8 9 9 10 10 10 9 9 9 9 8 8 7 6 5 5 3 2 3 2 2 1 1 1 1 1 1 1 1 1 1 0 1 1
6 7 5 7 6 6 4 4 3 2 3 3 2 3 5 6 8 9 9 9 9 9 9 9 9 8 7 7 6 5 5 4 3 3 3 2 1 1 2 2 2 1 1 1 1 1 1 1 1
5 4 5 6 6 6 5 5 3 2 2 1 2 3 4 5 6 7 8 8 8 8 8 8 8 8 7 7 6 4 5 4 4 4 4 3 2 2 2 2 2 2 2 2 2 1 1 1 1
6 6 6 6 6 6 5 1 1 2 3 3 1 2 3 4 5 6 6 7 7 8 8 8 8 7 7 7 6 6 5 5 4 4 4 3 3 3 3 2 2 2 2 2 2 2 2 2 2
6 7 8 8 7 7 7 3 2 2 3 3 2 1 1 3 4 5 6 6 7 8 8 8 8 7 7 6 6 6 6 5 5 5 4 4 3 3 3 3 3 2 2 2 2 2 2 2 2
Wind_Direction
178 187 228 239 213 106 86 85 96 106 83 68 62 64 65 44 27 67 86 74 70 78 72 74 57 67 70 68 71 73 72 74 74 74 75 75 74 72 73 74 76 76 76 75 74 74 79 81 85
175 197 238 242 204 118 97 101 103 83 96 109 88 79 77 72 57 85 100 81 81 80 75 66 59 66 73 74 72 72 72 73 74 73 72 71 70 68 69 71 74 76 74 72 71 71 84 83 82
157 251 270 168 81 82 104 111 105 102 108 121 103 70 60 72 82 93 95 106 96 87 79 73 60 68 72 77 75 71 70 70 71 70 69 67 67 68 67 67 70 73 73 72 72 72 78 80 78
214 207 203 117 96 76 99 118 123 129 116 90 112 99 83 62 79 102 117 116 101 93 85 79 62 68 69 74 76 75 72 70 71 71 70 69 68 68 67 66 67 72 72 72 73 76 77 78 78
236 228 146 118 101 96 100 114 131 119 113 109 117 106 96 86 99 117 123 112 101 93 87 86 69 67 68 72 76 77 76 74 70 68 68 68 67 67 68 68 67 69 70 72 71 72 77 78 76
201 209 162 129 119 119 124 132 145 116 112 119 125 115 100 113 121 123 121 112 103 97 93 94 86 73 72 74 75 74 74 73 70 69 68 66 65 65 65 66 70 71 72 73 71 70 76 77 73
216 172 135 133 136 142 136 142 154 130 126 120 131 119 121 132 130 129 122 116 108 102 97 92 98 100 91 78 74 74 71 70 69 69 68 67 65 63 63 64 65 68 72 73 73 74 76 76 73
255 168 151 151 155 143 143 147 134 137 110 110 154 136 136 141 143 137 130 126 117 109 97 90 88 87 95 96 81 73 71 69 70 70 67 69 80 77 69 73 65 65 68 73 74 75 75 75 72
232 202 170 159 166 143 155 158 138 127 127 129 113 80 112 136 148 145 142 136 128 119 109 100 92 88 82 84 94 93 90 81 90 88 78 70 73 74 77 61 61 62 65 69 72 75 77 83 86
221 203 157 145 160 149 162 166 154 159 150 142 134 121 132 148 157 156 153 146 141 134 119 109 98 93 89 84 94 85 83 83 67 64 66 61 60 62 64 83 72 70 73 79 75 80 95 86 92
182 172 143 155 157 157 165 167 171 177 165 166 163 153 154 161 165 163 157 147 141 136 127 121 107 101 95 94 85 78 72 74 72 63 63 57 62 75 67 77 94 87 86 81 91 101 75 68 63
149 136 156 150 159 175 174 168 179 202 131 142 159 156 161 170 171 168 162 153 149 144 134 127 122 114 101 92 86 84 78 72 69 63 57 57 55 55 60 63 58 60 62 65 68 63 69 64 67
159 152 151 156 162 172 172 181 186 187 154 149 151 160 169 174 173 168 164 158 155 148 146 134 132 123 111 96 86 87 76 68 77 66 58 59 55 60 63 68 62 57 61 70 65 65 65 59 53
130 142 146 160 172 180 185 192 202 183 170 166 166 171 176 177 176 171 172 169 164 161 156 142 144 135 129 117 108 85 78 81 73 69 60 60 59 55 49 58 57 55 54 57 60 68 60 60 56
155 165 172 175 180 183 199 208 210 177 177 179 180 179 180 182 183 186 176 176 171 164 160 149 154 148 137 117 97 85 80 79 76 70 61 62 54 53 54 50 53 52 53 57 60 68 61 64 67
193 206 200 175 190 185 223 227 175 176 190 191 189 183 185 188 194 192 184 182 175 170 166 155 156 158 140 126 118 105 88 78 77 69 53 56 55 52 55 51 49 47 52 52 63 65 66 64 52
207 222 224 183 193 198 230 248 167 185 201 200 197 193 190 189 195 193 188 187 182 176 171 163 159 157 144 134 128 107 94 87 82 71 50 43 49 46 60 52 40 44 45 55 60 72 62 68 60
210 229 235 227 189 216 236 247 203 193 209 211 204 202 200 197 195 190 188 186 184 179 176 169 160 160 144 142 136 122 111 101 83 69 57 41 37 44 55 57 52 49 58 53 53 68 64 62 66
250 251 254 253 216 234 246 253 237 208 214 218 213 208 207 205 196 187 186 187 185 182 183 175 171 166 159 158 164 156 152 141 116 76 50 53 33 37 55 39 52 44 58 58 61 63 84 80 64
241 246 250 240 219 250 262 260 248 225 221 223 222 215 211 205 195 189 191 189 190 186 189 185 181 176 172 173 174 164 152 142 109 106 85 44 32 31 45 62 76 86 77 81 74 80 58 64 1
238 247 255 261 242 235 268 256 233 221 224 225 228 225 217 209 202 194 194 192 191 190 194 192 187 182 177 167 160 149 143 149 152 155 128 54 33 38 41 62 71 70 121 125 126 142 173 302 302
240 242 255 250 254 253 253 275 237 218 218 218 218 217 216 208 206 199 195 194 196 193 192 194 190 187 179 173 178 178 184 182 175 175 147 122 76 77 82 91 102 138 152 159 169 175 246 256 271
246 240 239 249 257 264 236 261 257 208 227 225 219 214 212 207 202 200 197 196 197 191 190 193 189 187 180 186 184 197 196 185 165 165 151 155 129 104 95 95 135 170 193 188 182 216 274 295 298
192 196 197 222 244 250 242 252 268 223 247 244 223 215 209 203 198 197 193 191 192 187 185 186 188 186 182 187 191 197 191 186 177 178 169 176 154 147 123 174 189 237 235 194 204 175 133 326 327
213 237 236 222 220 240 199 245 262 319 288 272 256 225 203 197 194 192 189 187 187 186 184 185 186 185 184 189 195 195 198 194 193 187 181 187 178 170 166 193 204 224 226 201 198 197 210 254 310
215 237 256 271 266 264 205 242 265 360 300 272 255 228 198 192 194 192 190 190 187 186 187 188 189 188 185 189 192 194 194 200 200 194 189 191 197 188 175 188 186 176 182 184 186 230 243 282 273
219 223 263 276 275 272 241 241 263 243 253 245 230 205 198 189 190 192 189 190 189 186 187 191 189 189 187 189 186 185 191 194 194 195 197 195 195 186 179 180 179 170 191 204 193 214 222 258 276
254 224 221 245 265 262 249 253 264 258 280 243 216 205 201 190 189 191 188 189 189 187 186 187 189 191 188 188 187 184 190 190 198 200 200 196 189 188 186 188 182 171 189 207 214 238 235 235 228
193 208 228 242 255 270 271 244 27 312 329 320 289 230 209 193 192 191 189 187 184 180 180 183 185 188 186 189 189 188 186 189 195 203 203 203 196 192 191 193 192 190 203 215 200 230 224 249 242
245 233 233 244 242 249 272 270 77 301 310 307 303 254 194 189 187 185 183 182 181 181 181 184 185 186 186 187 188 192 183 190 197 198 199 204 203 199 198 194 200 203 216 230 229 231 238 250 264